パンスターズ彗星

C/2017 Y2 ( PanSTARRS )

English version
Home page
Updated on September 18, 2021

---------------------------------------------------------------------

・ プロフィール

発見日 2017年12月24日
発見光度 22.1等
発見者 Pan-STARRS 1 telescope (Haleakala)

・ 写真集

・ 軌道要素

Epoch 2020 Nov. 7.0 TT = JDT 2459160.5
T 2020 Nov. 4.62214 TT                                  Rudenko
q   4.6320463            (2000.0)            P               Q
z  -0.0002123      Peri.  147.87153     -0.04269853     -0.69707091
 +/-0.0000009      Node    65.99129     -0.99886506     +0.01465117
e   1.0009835      Incl.  128.41630     +0.02110527     -0.71685249
From 749 observations 2017 Dec. 24-2021 May 31, mean residual 0".6.

・ 星図

・ 光度変化

        m1 = 5.0 + 5 logΔ + 12.0 log r(t - 100)

---------------------------------------------------------------------

軌道要素はM.P.E.C. 2021-L04に掲載されたものです。
光度グラフはComet for Windowsで作成したものです。

---------------------------------------------------------------------

Copyright(C) Seiichi Yoshida (comet@aerith.net). All rights reserved.